• In Kazakhstan
  • List of Countries
  • For 7 days
  • Water Temperature
  • Satellite Maps
  • Weather Map
  • News
  • Weather Widgets
  • user-avatar
    Login

    Hourly Weather Southend-on-Sea

    Today, 18 November, Sunday

    Time Temperature Precipitation Wind Pressure Humidity
    00:00 +7°C° 0 mm 6 mps 771 mmHg 71%
    01:00 +7°C° 0 mm 6 mps 771 mmHg 72%
    02:00 +7°C° 0 mm 6 mps 771 mmHg 73%
    03:00 +5°C° 0 mm 6 mps 770 mmHg 74%
    04:00 +5°C° 0 mm 6 mps 771 mmHg 75%
    05:00 +5°C° 0 mm 6 mps 771 mmHg 75%
    06:00 +5°C° 0 mm 6 mps 771 mmHg 76%
    07:00 +7°C° 0 mm 6 mps 771 mmHg 74%
    08:00 +7°C° 0 mm 6 mps 771 mmHg 73%
    09:00 +6°C° 0 mm 7 mps 771 mmHg 71%
    10:00 +8°C° 0 mm 7 mps 771 mmHg 67%
    11:00 +9°C° 0 mm 7 mps 771 mmHg 62%
    12:00 +10°C° 0 mm 7 mps 771 mmHg 58%
    13:00 +10°C° 0 mm 7 mps 770 mmHg 57%
    14:00 +9°C° 0 mm 7 mps 770 mmHg 56%
    15:00 +9°C° 0 mm 7 mps 770 mmHg 55%
    16:00 +9°C° 0 mm 7 mps 770 mmHg 55%
    17:00 +8°C° 0 mm 7 mps 770 mmHg 56%
    18:00 +8°C° 0 mm 7 mps 770 mmHg 56%
    19:00 +8°C° 0 mm 7 mps 770 mmHg 56%
    20:00 +6°C° 0 mm 8 mps 770 mmHg 55%
    21:00 +6°C° 0 mm 8 mps 769 mmHg 55%
    22:00 +6°C° 0 mm 8 mps 769 mmHg 58%
    23:00 +6°C° 0 mm 8 mps 769 mmHg 61%

    Tomorrow, 19 November, Monday

    Time Temperature Precipitation Wind Pressure Humidity
    00:00 +6°C° 0 mm 8 mps 769 mmHg 63%
    01:00 +6°C° 0 mm 8 mps 768 mmHg 68%
    02:00 +6°C° 0 mm 9 mps 768 mmHg 72%
    03:00 +6°C° 0 mm 9 mps 768 mmHg 76%
    04:00 +6°C° 0 mm 9 mps 768 mmHg 74%
    05:00 +6°C° 0 mm 9 mps 768 mmHg 73%
    06:00 +6°C° 0 mm 9 mps 768 mmHg 71%
    07:00 +6°C° 0.1 mm 9 mps 767 mmHg 71%
    08:00 +6°C° 0.1 mm 9 mps 767 mmHg 70%
    09:00 +6°C° 0.1 mm 9 mps 767 mmHg 69%
    10:00 +6°C° 0.1 mm 9 mps 767 mmHg 67%
    11:00 +7°C° 0.1 mm 9 mps 766 mmHg 64%
    12:00 +7°C° 0.1 mm 10 mps 766 mmHg 62%
    13:00 +7°C° 0.1 mm 10 mps 765 mmHg 62%
    14:00 +7°C° 0.1 mm 9 mps 765 mmHg 63%
    15:00 +7°C° 0.1 mm 9 mps 764 mmHg 63%
    16:00 +7°C° 0.1 mm 9 mps 764 mmHg 64%
    17:00 +6°C° 0.1 mm 9 mps 764 mmHg 65%
    18:00 +6°C° 0.1 mm 9 mps 763 mmHg 65%
    19:00 +6°C° 0.3 mm 9 mps 763 mmHg 65%
    20:00 +6°C° 0.3 mm 9 mps 762 mmHg 65%
    21:00 +6°C° 0.3 mm 10 mps 762 mmHg 65%
    22:00 +6°C° 0.4 mm 10 mps 762 mmHg 66%
    23:00 +5°C° 0.4 mm 10 mps 761 mmHg 66%

    Day after tomorrow, 20 November, Tuesday

    Time Temperature Precipitation Wind Pressure Humidity
    00:00 +5°C° 0.4 mm 10 mps 761 mmHg 67%
    01:00 +5°C° 0.2 mm 10 mps 760 mmHg 67%
    02:00 +5°C° 0.2 mm 10 mps 760 mmHg 68%
    03:00 +3°C° 0.2 mm 10 mps 760 mmHg 68%
    04:00 +3°C° 0.2 mm 10 mps 759 mmHg 69%
    05:00 +3°C° 0.2 mm 10 mps 759 mmHg 69%
    06:00 +3°C° 0.2 mm 11 mps 759 mmHg 70%
    07:00 +3°C° 0.2 mm 11 mps 758 mmHg 71%
    08:00 +3°C° 0.2 mm 11 mps 758 mmHg 71%
    09:00 +3°C° 0.2 mm 11 mps 758 mmHg 72%
    10:00 +3°C° 0.2 mm 11 mps 758 mmHg 72%
    11:00 +3°C° 0.2 mm 10 mps 757 mmHg 72%
    12:00 +3°C° 0.2 mm 10 mps 757 mmHg 71%
    13:00 +3°C° 0.1 mm 10 mps 756 mmHg 72%
    14:00 +3°C° 0.1 mm 10 mps 756 mmHg 73%
    15:00 +3°C° 0.1 mm 10 mps 756 mmHg 74%
    16:00 +3°C° 0.2 mm 9 mps 755 mmHg 75%
    17:00 +2°C° 0.2 mm 9 mps 755 mmHg 75%
    18:00 +2°C° 0.2 mm 9 mps 755 mmHg 76%
    19:00 +2°C° 0.1 mm 9 mps 755 mmHg 75%
    20:00 +2°C° 0.1 mm 8 mps 755 mmHg 75%
    21:00 +3°C° 0.1 mm 7 mps 755 mmHg 74%
    22:00 +3°C° 0.3 mm 7 mps 755 mmHg 76%
    23:00 +3°C° 0.3 mm 7 mps 754 mmHg 77%

    21 November, Wednesday

    Time Temperature Precipitation Wind Pressure Humidity
    00:00 +3°C° 0.3 mm 7 mps 754 mmHg 78%
    01:00 +3°C° 0.6 mm 7 mps 753 mmHg 80%
    02:00 +3°C° 0.6 mm 6 mps 753 mmHg 82%
    03:00 +3°C° 0.6 mm 6 mps 753 mmHg 83%
    04:00 +3°C° 0.4 mm 6 mps 753 mmHg 83%
    05:00 +3°C° 0.4 mm 7 mps 753 mmHg 82%
    06:00 +3°C° 0.4 mm 7 mps 753 mmHg 82%
    07:00 +3°C° 0.2 mm 7 mps 753 mmHg 81%
    08:00 +4°C° 0.2 mm 7 mps 754 mmHg 79%
    09:00 +4°C° 0.2 mm 7 mps 755 mmHg 77%
    10:00 +4°C° 0.1 mm 7 mps 756 mmHg 76%
    11:00 +4°C° 0.1 mm 7 mps 756 mmHg 75%
    12:00 +4°C° 0.1 mm 7 mps 757 mmHg 73%
    13:00 +4°C° 0.1 mm 7 mps 757 mmHg 74%
    14:00 +4°C° 0.1 mm 6 mps 758 mmHg 74%
    15:00 +4°C° 0.1 mm 6 mps 758 mmHg 75%
    16:00 +4°C° 0 mm 6 mps 759 mmHg 76%
    17:00 +3°C° 0 mm 6 mps 760 mmHg 76%
    18:00 +3°C° 0 mm 5 mps 760 mmHg 77%
    19:00 +3°C° 0 mm 5 mps 761 mmHg 77%
    20:00 +3°C° 0 mm 5 mps 761 mmHg 77%
    21:00 +3°C° 0 mm 5 mps 762 mmHg 77%
    22:00 +4°C° 0 mm 4 mps 762 mmHg 77%
    23:00 +4°C° 0 mm 3 mps 762 mmHg 78%

    22 November, Thursday

    Time Temperature Precipitation Wind Pressure Humidity
    00:00 +4°C° 0 mm 3 mps 762 mmHg 79%
    01:00 +5°C° 0 mm 2 mps 762 mmHg 79%
    02:00 +4°C° 0 mm 2 mps 762 mmHg 79%
    03:00 +5°C° 0 mm 1 mps 762 mmHg 79%
    04:00 +5°C° 0.1 mm 2 mps 762 mmHg 81%
    05:00 +5°C° 0.1 mm 2 mps 762 mmHg 82%
    06:00 +4°C° 0.1 mm 3 mps 762 mmHg 83%
    07:00 +4°C° 0.1 mm 3 mps 762 mmHg 84%
    08:00 +5°C° 0.1 mm 3 mps 762 mmHg 86%
    09:00 +5°C° 0.1 mm 3 mps 762 mmHg 88%
    10:00 +5°C° 0.1 mm 3 mps 762 mmHg 87%
    11:00 +7°C° 0.1 mm 3 mps 762 mmHg 87%
    12:00 +7°C° 0.1 mm 3 mps 761 mmHg 87%
    13:00 +7°C° 0.1 mm 3 mps 761 mmHg 87%
    14:00 +7°C° 0.1 mm 3 mps 761 mmHg 87%
    15:00 +7°C° 0.1 mm 3 mps 761 mmHg 87%
    16:00 +7°C° 0 mm 3 mps 761 mmHg 87%
    17:00 +7°C° 0 mm 3 mps 761 mmHg 87%
    18:00 +5°C° 0 mm 3 mps 762 mmHg 87%
    19:00 +5°C° 0 mm 3 mps 762 mmHg 86%
    20:00 +5°C° 0 mm 3 mps 762 mmHg 86%
    21:00 +5°C° 0 mm 3 mps 762 mmHg 85%
    22:00 +5°C° 0 mm 3 mps 762 mmHg 85%
    23:00 +5°C° 0 mm 3 mps 762 mmHg 84%

    23 November, Friday

    Time Temperature Precipitation Wind Pressure Humidity
    00:00 +6°C° 0 mm 2 mps 762 mmHg 84%
    01:00 +6°C° 0 mm 2 mps 762 mmHg 84%
    02:00 +5°C° 0 mm 2 mps 762 mmHg 83%
    03:00 +5°C° 0 mm 2 mps 762 mmHg 83%
    04:00 +5°C° 0 mm 2 mps 762 mmHg 84%
    05:00 +5°C° 0 mm 2 mps 762 mmHg 85%
    06:00 +4°C° 0 mm 2 mps 762 mmHg 86%
    07:00 +5°C° 0 mm 2 mps 763 mmHg 85%
    08:00 +4°C° 0 mm 3 mps 763 mmHg 84%
    09:00 +4°C° 0 mm 3 mps 763 mmHg 83%
    10:00 +5°C° 0 mm 3 mps 763 mmHg 79%
    11:00 +7°C° 0 mm 3 mps 763 mmHg 75%
    12:00 +8°C° 0 mm 3 mps 763 mmHg 71%
    13:00 +8°C° 0 mm 3 mps 763 mmHg 72%
    14:00 +8°C° 0 mm 3 mps 763 mmHg 74%
    15:00 +8°C° 0 mm 3 mps 763 mmHg 76%
    16:00 +7°C° 0 mm 3 mps 763 mmHg 78%
    17:00 +5°C° 0 mm 3 mps 763 mmHg 81%
    18:00 +5°C° 0 mm 3 mps 764 mmHg 83%
    19:00 +5°C° 0 mm 3 mps 764 mmHg 84%
    20:00 +5°C° 0 mm 3 mps 764 mmHg 85%
    21:00 +4°C° 0 mm 3 mps 764 mmHg 86%
    22:00 +4°C° 0 mm 3 mps 764 mmHg 86%
    23:00 +5°C° 0 mm 2 mps 764 mmHg 87%
    Show more